Regional Weather Roundup
Issued by NWS

Home | Current Version | Previous Version | Text Only | Print | Product List | Glossary On
Versions: 1 2 3 4 5 6 7 8 9 10 11 12 13 14 15 16 17 18 19 20 21 22 23 24 25 26 27 28 29 30 31 32 33 34 35 36 37 38 39 40 41 42 43 44 45 46 47 48 49 50
690
ASUS43 KMPX 300110
RWRMN
WEATHER ROUNDUP FOR MINNESOTA
NATIONAL WEATHER SERVICE TWIN CITIES/CHANHASSEN MN
800 PM CDT FRI JUL 29 2016


NOTE: "FAIR" INDICATES FEW OR NO CLOUDS BELOW 12,000 FEET WITH NO
SIGNIFICANT WEATHER AND/OR OBSTRUCTIONS TO VISIBILITY. N/A MEANS
CURRENT SKY AND/OR WEATHER CONDITIONS ARE NOT AVAILABLE.

MNZ060>063-068>070-300200-
   Twin Cities Metro

CITY           SKY/WX    TMP DP  RH WIND       PRES   REMARKS
TWIN CITIES    PTCLDY    75  52  44 VRB7      30.02S
ST PAUL        CLEAR     75  54  47 NE8       30.02S
CRYSTAL        CLEAR     73  51  46 NE6       30.01S
BLAINE         PTCLDY    75  54  46 NE5       30.03S
LAKEVILLE      CLEAR     68  59  73 E3        30.02S
EDEN PRAIRIE   CLEAR     74  51  44 NE5       30.01S
LAKEVILLE      CLEAR     68  59  73 E3        30.02S
SOUTH ST PAUL  CLEAR     75  50  41 NE3       30.01S
LAKE ELMO      FAIR      73  59  60 CALM      30.03S
$$
MNZ001>005-007-008-013>017-022>024-027-028-300200-
   Northwest Minnesota

CITY           SKY/WX    TMP DP  RH WIND       PRES   REMARKS
BEMIDJI        CLOUDY    73  58  60 SE8       30.02S
HALLOCK        CLEAR     75  57  53 SW3       29.98S
ROSEAU         PTCLDY    75  64  69 SE5       30.00S
WARROAD        PTCLDY    75  63  64 E3        30.01S
THIEF RVR FALL PTCLDY    73  57  57 S3        30.01F
CROOKSTON      PTCLDY    75  55  50 CALM      30.00S
FOSSTON        PTCLDY    75  57  53 CALM      30.02S
DETROIT LAKES  PTCLDY    73  63  68 CALM      30.03F
MOORHEAD       PTCLDY    75  61  60 CALM      30.00F
PARK RAPIDS    CLOUDY    73  60  63 S6        30.03S
MAHNOMEN       FAIR      75  58  55 CALM      30.01F
$$
MNZ006-009>011-018-025>026-300200-
   North Central Minnesota

CITY           SKY/WX    TMP DP  RH WIND       PRES   REMARKS
BAUDETTE       PTCLDY    75  58  55 S6        30.00F
FLAG ISLAND    CLEAR     75  55  50 S3        29.99S
INTL FALLS     PTCLDY    72  57  59 SE3       30.01F
WASKISH        CLOUDY    72  61  68 CALM      30.01S
BIG FORK       CLEAR     68  59  73 CALM      30.03F
LONGVILLE      CLOUDY    72  63  73 CALM      30.03S
GRAND RAPIDS   CLEAR     67  60  78 CALM      30.06S
CRANE LAKE     CLEAR     70  59  68 S1        30.05S
ORR            CLEAR     66  55  68 CALM      30.02S
COOK           CLEAR     68  61  77 CALM      30.05R
WALKER         FAIR      71  58  63 S5        30.03S
$$
MNZ012-019>021-037-300200-
   Northeast Minnesota

CITY           SKY/WX    TMP DP  RH WIND       PRES   REMARKS
DULUTH         CLEAR     65  51  60 SE7       30.07S
ELY            CLEAR     72  52  49 S5        30.05S
HIBBING        CLEAR     70  54  56 SE6       30.04S
EVELETH        CLEAR     72  53  51 SE5       30.06S
DULUTH HARBOR  CLEAR     66  61  82 N8        30.06S
TWO HARBORS    CLEAR     70  54  56 E3        30.06R
SILVER BAY     CLEAR     68  48  49 E3        30.06R
GRAND MARAIS     N/A     66  55  67 CALM      30.06S
G MARAIS ARPRT CLEAR     59  45  58 CALM      30.11S
$$
MNZ029>031-032-039>041-046>048-054>057-064-300200-
   West Central Minnesota

CITY           SKY/WX    TMP DP  RH WIND       PRES   REMARKS
FERGUS FALLS   CLOUDY    72  63  73 S3        30.02F
WHEATON        CLEAR     77  64  65 CALM      30.02F
MORRIS         CLEAR     75  61  60 SE3       30.01F
ALEXANDRIA     PTCLDY    74  56  53 CALM      30.05F
ELBOW LAKE     LGT RAIN  71  63  77 CALM      30.03F
WADENA         CLOUDY    72  63  73 CALM      30.03S
GLENWOOD       PTCLDY    75  61  60 CALM      30.04F
APPLETON       CLEAR     75  57  53 SE3       30.02R
BENSON         PTCLDY    75  57  53 CALM      30.02S
ORTONVILLE     CLEAR     75  59  57 CALM      30.02S
MADISON        CLEAR     75  61  60 CALM      30.02S
WILLMAR        FAIR      73  59  60 E5        30.04S
$$
MNZ033>034-036-042>043-049>051-058-059-300200-
   Central Minnesota

CITY           SKY/WX    TMP DP  RH WIND       PRES   REMARKS
ST CLOUD       CLEAR     72  57  59 E3        30.03S
SAUK CENTRE    FAIR      73  58  59 CALM      30.04S
PAYNESVILLE    CLOUDY    73  55  53 NE3       30.04F
AITKIN         CLEAR     73  52  46 CALM      30.03S
PINE RIVER     MOCLDY    68  63  83 CALM      30.06F
BRAINERD       PTCLDY    71  58  63 SE6       30.04S
STAPLES        CLOUDY    72  59  64 CALM      30.03F
LONG PRAIRIE   MOCLDY    70  59  68 CALM      30.04F
LITTLE FALLS   CLEAR     68  57  68 CALM      30.04S
LITCHFIELD     CLOUDY    73  59  60 E3        30.04S
BUFFALO        CLEAR     71  52  50 CALM      30.04S
MAPLE LAKE     CLEAR     70  58  65 E3        30.04S
HUTCHINSON     CLEAR     73  59  61 E5        30.04S
$$
MNZ037-044-045-052-053-300200-
   East Central Minnesota

CITY           SKY/WX    TMP DP  RH WIND       PRES   REMARKS
PRINCETON      CLEAR     73  54  49 CALM      30.04R
MORA           CLEAR     66  54  63 CALM      30.05S
CAMBRIDGE      CLEAR     75  57  53 CALM      30.02S
RUSH CITY      CLEAR     70  59  69 CALM      30.04R
MOOSE LAKE     CLEAR     70  54  56 E3        30.04S
HINCKLEY       FAIR      72  59  64 NE3       30.04R
CLOQUET        CLEAR     66  52  59 E5        30.06F
MCGREGOR       CLEAR     68  54  60 SE6       30.05S
$$
MNZ071>073-080-081-089-090-097-098-300200-
   Southwest Minnesota

CITY           SKY/WX    TMP DP  RH WIND       PRES   REMARKS
MONTEVIDEO     CLEAR     75  61  60 CALM      30.04S
GRANITE FALLS  CLEAR     77  59  52 CALM      30.04S
CANBY          CLEAR     74  59  59 SE3       30.04R
MARSHALL       CLEAR     74  56  53 E6        30.03S
REDWOOD FALLS  CLEAR     74  56  53 E5        30.03R
OLIVIA         CLEAR     73  55  53 E5        30.03R
PIPESTONE      PTCLDY    75  52  43 N2        30.05S
WINDOM         CLEAR     72  55  56 NE6       30.04S
WORTHINGTON    CLEAR     71  57  61 NE6       30.05S
JACKSON        CLEAR     72  54  53 NE7       30.05S
TRACY          CLEAR     74  60  62 CALM      30.04S
SLAYTON        CLEAR     71  56  58 NE6       30.06R
$$
MNZ065>067-074>077-082>085-091>093-300200-
   South Central Minnesota

CITY           SKY/WX    TMP DP  RH WIND       PRES   REMARKS
MANKATO        CLEAR     72  54  53 N6        30.03S
NEW ULM        CLOUDY    73  52  46 NE6       30.03R
ST JAMES       PTCLDY    68  54  60 NE3       30.04S
FAIRMONT       CLEAR     72  59  64 N6        30.02S
GLENCOE        CLEAR     73  57  58 CALM      30.03S
FARIBAULT      CLEAR     70  61  73 CALM      30.03S
OWATONNA       CLEAR     72  54  53 NE3       30.03S
WASECA         CLEAR     68  55  64 NE6       30.04S
ALBERT LEA     CLOUDY    72  61  68 NE3       30.02S
$$
MNZ078>079-086>088-094>096-300200-
   Southeast Minnesota

CITY           SKY/WX    TMP DP  RH WIND       PRES   REMARKS
ROCHESTER      MOCLDY    71  61  70 N8        30.03S
RED WING       CLEAR     73  57  56 CALM      30.00F
STANTON        CLEAR     72  57  60 CALM      30.01S
DODGE CENTER   CLEAR     70  59  68 CALM      30.03S
WINONA         CLOUDY    73  63  68 E5        30.00S
AUSTIN         MOCLDY    72  61  68 N5        30.02S
PRESTON        CLOUDY    70  62  76 N5        30.03R
$$
ABBREVIATIONS USED IN REMARKS
   TC - TEMPERATURES IN CELSIUS
  WCI - WIND CHILL INDEX
   HX - HEAT INDEX
  VSB - VISIBILITY
$$




USA.gov is the U.S. government's official web portal to all federal, state and local government web resources and services.